Location: Lake Runnemede Observatory
(43.4843°N, 72.3851°W)
Time: 01:59:04
(UTC-04:00)

Amateur Radio Satellites - All Passes

Search period start: 01 September 2015 01:29
Search period end: 02 September 2015 01:29
Location: Lake Runnemede Observatory, 43.4843°N, 72.3851°W

Satellite Date Start Highest point End Downlink Frequencies (MHz)
Time Altitude Azimuth
PCSat 01 Sep 01:38:03 01:43:03 40° 113° (ESE) 01:48:08 145.827
ITUPSAT 1 01 Sep 01:41:14 01:46:00 73° 74° (ENE) 01:50:47 437.325
AIST 2 01 Sep 01:44:35 01:48:36 46° 241° (WSW) 01:52:33 435.215
Gurwin Techsat 1B 01 Sep 01:45:08 01:45:43 10° 84° (E) 01:46:43 435.225
POLYITAN 1 01 Sep 01:47:23 01:48:40 11° 299° (WNW) 01:49:44 437.675
KKS-1 01 Sep 01:49:43 01:52:23 16° 63° (ENE) 01:55:13 437.445
POPSAT HIP 1 01 Sep 01:50:15 01:51:14 11° 299° (WNW) 01:51:59 437.405
DUCHIFAT 1 01 Sep 01:50:33 01:51:39 11° 299° (WNW) 01:52:32 145.980
BUGSAT 1 01 Sep 01:57:00 01:59:10 14° 297° (WNW) 02:01:11 437.445
Cosmos 2504 01 Sep 01:59:46 02:05:13 18° 304° (NW) 02:10:22 435.465 / 435.565
ITAMSAT 1 01 Sep 02:01:48 02:03:37 12° 86° (E) 02:05:46 435.822/435.867
JAS-2 01 Sep 02:10:04 02:11:50 11° 78° (ENE) 02:14:02 435.910
GONETS M04 01 Sep 02:10:30 02:18:05 37° 86° (E) 02:25:54
BEESAT 01 Sep 02:14:36 02:19:16 52° 261° (W) 02:23:56 436.000
SO-50 01 Sep 02:17:15 02:21:53 44° 312° (NW) 02:26:37 436.795
Oscar 19 01 Sep 02:39:41 02:44:55 76° 285° (WNW) 02:50:05 437.125/150
SWISSCUBE 01 Sep 02:41:24 02:45:28 27° 266° (W) 02:49:27 437.505
Cosmos 2499 01 Sep 03:00:16 03:05:49 20° 79° (ENE) 03:11:55 435.465 / 435.565
STARS 01 Sep 03:05:21 03:09:39 55° 73° (ENE) 03:14:01 437.465
VERMONT LUNAR 01 Sep 03:16:43 03:18:15 13° 154° (SSE) 03:19:49 437.305
AO-7 01 Sep 03:20:15 03:25:13 18° 87° (E) 03:30:38 29.400- 29.500
Gurwin Techsat 1B 01 Sep 03:21:18 03:26:39 83° 102° (ESE) 03:31:59 435.225
PCSat 01 Sep 03:21:39 03:26:34 34° 312° (NW) 03:31:28 145.827
ITUPSAT 1 01 Sep 03:22:18 03:24:30 13° 272° (W) 03:26:27 437.325
KKS-1 01 Sep 03:24:13 03:28:36 56° 260° (W) 03:33:01 437.445
RS-15 01 Sep 03:25:29 03:35:23 31° 255° (WSW) 03:45:04 29.354- 29.394
MOZHAYETS 4 01 Sep 03:37:47 03:41:46 30° 69° (ENE) 03:45:48
ITAMSAT 1 01 Sep 03:38:42 03:43:55 85° 287° (WNW) 03:49:07 435.822/435.867
JAS-2 01 Sep 03:51:29 03:58:36 73° 101° (E) 04:04:50 435.910
O/OREOS (USA 219) 01 Sep 04:01:31 04:05:23 26° 56° (NE) 04:09:17 437.305
SO-50 01 Sep 04:02:06 04:03:46 11° 334° (NNW) 04:05:18 436.795
GONETS M04 01 Sep 04:06:20 04:14:45 51° 286° (WNW) 04:23:10
Oscar 19 01 Sep 04:21:45 04:23:28 11° 303° (WNW) 04:24:55 437.125/150
HORYU 2 01 Sep 04:25:50 04:30:00 38° 97° (E) 04:34:09 437.375
STARS 01 Sep 04:43:51 04:46:29 15° 271° (W) 04:48:56 437.465
Cosmos 2499 01 Sep 04:49:23 04:57:53 89° 275° (W) 05:06:50 435.465 / 435.565
VERMONT LUNAR 01 Sep 04:51:26 04:54:13 36° 169° (S) 04:57:00 437.305
Gurwin Techsat 1B 01 Sep 05:03:01 05:06:01 15° 300° (WNW) 05:08:49 435.225
AO-7 01 Sep 05:11:00 05:19:22 86° 108° (ESE) 05:27:40 29.400- 29.500
MOZHAYETS 4 01 Sep 05:14:55 05:18:58 29° 265° (W) 05:22:58
ITAMSAT 1 01 Sep 05:20:27 05:22:43 13° 302° (WNW) 05:24:44 435.822/435.867
STRAND 1 01 Sep 05:28:33 05:30:50 13° 59° (ENE) 05:33:22 437.568
CUBESAT XI-V 01 Sep 05:31:44 05:35:59 39° 71° (ENE) 05:40:18 437.345
JAS-2 01 Sep 05:37:30 05:42:55 23° 302° (WNW) 05:47:44 435.910
PHONESAT 2.4 01 Sep 05:38:33 05:40:54 18° 154° (SSE) 05:43:16 2401.200-2431.200
O/OREOS (USA 219) 01 Sep 05:40:41 05:44:55 36° 254° (WSW) 05:49:04 437.305
PRISM 01 Sep 05:55:03 05:56:39 12° 63° (ENE) 05:58:25 437.425
HORYU 2 01 Sep 06:02:54 06:06:26 22° 294° (WNW) 06:09:50 437.375
CUTE-I 01 Sep 06:04:58 06:08:26 18° 90° (E) 06:12:07 437.470
GONETS M04 01 Sep 06:13:33 06:14:27 10° 313° (NW) 06:14:41
VERMONT LUNAR 01 Sep 06:27:32 06:30:24 44° 185° (S) 06:33:16 437.305
Cosmos 2499 01 Sep 06:46:10 06:52:34 21° 302° (WNW) 06:58:46 435.465 / 435.565
Cubesat XI-IV 01 Sep 06:58:50 07:04:03 55° 100° (E) 07:09:18 437.490
STRAND 1 01 Sep 07:04:18 07:09:24 88° 250° (WSW) 07:14:33 437.568
AO-7 01 Sep 07:04:56 07:11:20 25° 307° (NW) 07:17:29 29.400- 29.500
CUBESAT XI-V 01 Sep 07:10:01 07:13:36 22° 268° (W) 07:17:06 437.345
PHONESAT 2.4 01 Sep 07:15:05 07:18:20 43° 170° (S) 07:21:35 2401.200-2431.200
PRISM 01 Sep 07:27:32 07:31:36 65° 258° (WSW) 07:35:41 437.425
SO-50 01 Sep 07:29:34 07:29:49 10° 23° (NNE) 07:30:12 436.795
YUBILEINY 01 Sep 07:31:00 07:39:07 40° 70° (ENE) 07:47:18 435.215
CUTE-I 01 Sep 07:43:45 07:49:01 61° 288° (WNW) 07:54:16 437.470
AIST 1 01 Sep 07:44:35 07:48:20 32° 91° (E) 07:52:10
VERMONT LUNAR 01 Sep 08:04:09 08:06:29 20° 201° (SSW) 08:08:46 437.305
HO-68 01 Sep 08:04:26 08:08:57 18° 88° (E) 08:13:49 435.675
CANX-2 01 Sep 08:17:56 08:20:14 15° 89° (E) 08:22:41 2200.000
BRITE-PL 01 Sep 08:20:14 08:25:43 68° 100° (E) 08:31:24 437.365/2234.400
Cosmos 2491 01 Sep 08:20:40 08:28:16 37° 86° (E) 08:36:04 435.465 / 435.565
SEEDS 01 Sep 08:38:25 08:41:10 17° 91° (E) 08:44:02 437.485
Cubesat XI-IV 01 Sep 08:39:46 08:43:49 22° 297° (WNW) 08:47:44 437.490
PCSat 01 Sep 08:43:30 08:44:39 11° 28° (NNE) 08:46:00 145.827
GOMX 1 01 Sep 08:47:34 08:53:02 73° 101° (E) 08:58:32 467.674
STRAND 1 01 Sep 08:48:25 08:49:29 10° 275° (W) 08:50:11 437.568
PHONESAT 2.4 01 Sep 08:52:41 08:55:59 47° 187° (S) 08:59:16 2401.200-2431.200
COMPASS 1 01 Sep 08:59:20 09:02:36 23° 93° (E) 09:05:56 437.405
DOVE 4 01 Sep 08:59:33 09:04:49 59° 99° (E) 09:10:02 437.250
ISS 01 Sep 09:06:39 09:09:51 57° 143° (SE) 09:13:04 145.825
SO-50 01 Sep 09:07:16 09:11:51 36° 46° (NE) 09:16:23 436.795
AAUSAT CUBESAT 2 01 Sep 09:09:07 09:12:30 24° 94° (E) 09:15:55 437.432
ANTELSAT 01 Sep 09:10:04 09:12:36 15° 62° (ENE) 09:15:19 437.575/2403.000
AIST 1 01 Sep 09:22:44 09:26:05 22° 289° (WNW) 09:29:22
AUBIESAT-1 01 Sep 09:24:08 09:27:49 24° 61° (ENE) 09:31:32 437.475
YUBILEINY 01 Sep 09:27:47 09:36:11 49° 271° (W) 09:44:26 435.215
M-CUBED/EXP-1 PRIME 01 Sep 09:29:20 09:33:28 30° 63° (ENE) 09:37:36 437.505
ZACube-1 01 Sep 09:30:34 09:32:36 13° 87° (E) 09:34:49 437.345
CUBEBUG 2 01 Sep 09:30:58 09:34:43 24° 92° (E) 09:38:26 437.445
DELFI C3 01 Sep 09:32:00 09:33:21 12° 88° (E) 09:34:55 145.870
FUNcube-1 01 Sep 09:35:30 09:37:52 14° 88° (E) 09:40:23 145.935
UWE-3 01 Sep 09:37:17 09:40:43 21° 91° (E) 09:44:12 435.000/436.395/437.385
CUTE 1.7 + AOD 2 01 Sep 09:38:12 09:42:27 81° 283° (WNW) 09:46:39 437.475
CINEMA 3 01 Sep 09:42:28 09:47:29 69° 101° (E) 09:52:21 145.822/145.860
CUSAT 1 01 Sep 09:43:14 09:49:27 27° 64° (ENE) 09:56:17 437.405
Cosmos 2504 01 Sep 09:48:43 09:56:34 40° 70° (ENE) 10:04:06 435.465 / 435.565
QB50P2 01 Sep 09:49:25 09:51:10 13° 62° (ENE) 09:53:06 145.880/145.840
NANOSAT C BR1 01 Sep 09:50:15 09:51:50 12° 62° (ENE) 09:53:37 145.865
HO-68 01 Sep 09:50:26 09:57:41 85° 287° (WNW) 10:04:53 435.675
CANX-2 01 Sep 09:52:24 09:56:31 50° 287° (WNW) 10:00:35 2200.000
UNISAT 6 01 Sep 09:58:48 10:03:11 42° 71° (ENE) 10:07:39 437.425
BRITE-PL 01 Sep 09:59:50 10:03:47 20° 296° (WNW) 10:07:40 437.365/2234.400
QB50P1 01 Sep 10:02:55 10:05:34 17° 65° (ENE) 10:08:22 145.935-145.965
HUMSAT D 01 Sep 10:12:02 10:14:04 14° 88° (E) 10:16:17 437.325/437.525
SEEDS 01 Sep 10:13:14 10:17:12 41° 288° (WNW) 10:21:07 437.485
DANDE 01 Sep 10:13:47 10:20:11 31° 67° (ENE) 10:27:30 436.750
Cosmos 2491 01 Sep 10:16:30 10:24:57 51° 286° (WNW) 10:33:22 435.465 / 435.565
Oscar 11 01 Sep 10:20:52 10:25:11 68° 101° (E) 10:29:28 145.826/435.025
PCSat 01 Sep 10:24:27 10:29:38 43° 51° (NE) 10:34:48 145.827
TIGRISAT 01 Sep 10:26:51 10:31:32 77° 75° (ENE) 10:36:16 435.000
GOMX 1 01 Sep 10:26:57 10:30:37 18° 297° (WNW) 10:34:07 467.674
PHONESAT 2.4 01 Sep 10:30:48 10:33:29 22° 203° (SSW) 10:36:09 2401.200-2431.200
COMPASS 1 01 Sep 10:34:37 10:38:19 31° 290° (WNW) 10:41:57 437.405
DOVE 4 01 Sep 10:38:12 10:42:08 21° 296° (WNW) 10:45:55 437.250
AISAT 01 Sep 10:40:41 10:41:07 10° 86° (E) 10:41:53 437.250
ISS 01 Sep 10:43:32 10:46:25 29° 341° (NNW) 10:49:20 145.825
ANTELSAT 01 Sep 10:44:10 10:48:52 70° 259° (W) 10:53:36 437.575/2403.000
AAUSAT CUBESAT 2 01 Sep 10:44:30 10:48:06 29° 291° (WNW) 10:51:38 437.432
SO-50 01 Sep 10:47:55 10:52:23 34° 245° (WSW) 10:56:41 436.795
AUBIESAT-1 01 Sep 10:57:43 11:02:16 45° 256° (WSW) 11:06:44 437.475
POLYITAN 1 01 Sep 11:02:44 11:06:59 71° 76° (ENE) 11:11:18 437.675
M-CUBED/EXP-1 PRIME 01 Sep 11:03:44 11:08:08 34° 259° (WSW) 11:12:27 437.505
DELFI C3 01 Sep 11:04:55 11:08:51 56° 286° (WNW) 11:12:44 145.870
ZACube-1 01 Sep 11:05:00 11:09:29 62° 286° (WNW) 11:13:50 437.345
POPSAT HIP 1 01 Sep 11:05:09 11:09:23 74° 75° (ENE) 11:13:41 437.405
DUCHIFAT 1 01 Sep 11:05:12 11:09:24 71° 75° (ENE) 11:13:40 145.980
VELOX 1 01 Sep 11:06:25 11:09:37 19° 92° (E) 11:12:54 145.980
CUBEBUG 2 01 Sep 11:07:09 11:11:31 37° 290° (WNW) 11:15:43 437.445
FUNcube-1 01 Sep 11:10:13 11:14:38 57° 287° (WNW) 11:18:56 145.935
BUGSAT 1 01 Sep 11:10:57 11:14:53 50° 73° (ENE) 11:18:54 437.445
UWE-3 01 Sep 11:13:07 11:17:27 40° 289° (WNW) 11:21:38 435.000/436.395/437.385
CINEMA 3 01 Sep 11:20:58 11:24:07 16° 298° (WNW) 11:27:04 145.822/145.860
QB50P2 01 Sep 11:22:17 11:26:31 70° 258° (WSW) 11:30:49 145.880/145.840
NANOSAT C BR1 01 Sep 11:22:54 11:27:08 72° 259° (W) 11:31:25 145.865
CUSAT 1 01 Sep 11:24:56 11:32:42 76° 263° (W) 11:40:56 437.405
UNISAT 6 01 Sep 11:36:28 11:40:09 22° 268° (W) 11:43:45 437.425
QB50P1 01 Sep 11:36:57 11:41:05 49° 261° (W) 11:45:15 145.935-145.965
HO-68 01 Sep 11:39:41 11:44:32 19° 306° (NW) 11:49:07 435.675
50 SAT 01 Sep 11:40:11 11:43:59 53° 100° (E) 11:47:44 437.505
Cosmos 2504 01 Sep 11:40:55 11:48:58 47° 272° (W) 11:56:29 435.465 / 435.565
HUMSAT D 01 Sep 11:46:03 11:50:14 55° 287° (WNW) 11:54:19 437.325/437.525
DX 1 01 Sep 11:49:42 11:54:07 86° 104° (ESE) 11:58:31 434.975-435.025
DANDE 01 Sep 11:56:16 12:03:46 66° 263° (W) 12:12:10 436.750
Oscar 11 01 Sep 11:58:49 12:00:52 13° 297° (WNW) 12:02:43 145.826/435.025
UKube-1 01 Sep 12:01:32 12:05:55 79° 284° (WNW) 12:10:15 .
ESTCUBE 1 01 Sep 12:02:31 12:06:57 57° 100° (E) 12:11:24 437.505/2401.250
TIGRISAT 01 Sep 12:07:03 12:08:55 12° 274° (W) 12:10:30 435.000
SPROUT 01 Sep 12:07:19 12:10:05 17° 90° (E) 12:13:00 437.525
PCSat 01 Sep 12:08:12 12:12:55 30° 250° (WSW) 12:17:31 145.827
CUBEBUG 1 01 Sep 12:12:48 12:17:11 61° 100° (E) 12:21:34 437.445
AISAT 01 Sep 12:13:51 12:18:22 80° 285° (WNW) 12:22:51 437.250
GONETS M04 01 Sep 12:19:06 12:24:58 20° 58° (ENE) 12:31:13
Oscar 19 01 Sep 12:19:48 12:23:48 24° 64° (ENE) 12:27:58 437.125/150
ISS 01 Sep 12:21:08 12:23:33 19° 1° (N) 12:26:00 145.825
Cosmos 2491 01 Sep 12:23:34 12:24:38 10° 313° (NW) 12:25:03 435.465 / 435.565
VELOX 1 01 Sep 12:42:08 12:46:22 42° 289° (WNW) 12:50:35 145.980
POLYITAN 1 01 Sep 12:42:17 12:43:28 11° 273° (W) 12:44:24 437.675
DUCHIFAT 1 01 Sep 12:44:43 12:45:47 11° 273° (W) 12:46:36 145.980
POPSAT HIP 1 01 Sep 12:45:06 12:45:52 10° 273° (W) 12:46:22 437.405
BUGSAT 1 01 Sep 12:48:27 12:50:43 14° 271° (W) 12:52:49 437.445
Gurwin Techsat 1B 01 Sep 13:05:35 13:09:23 21° 63° (ENE) 13:13:21 435.225
TISAT 1 01 Sep 13:08:11 13:12:16 42° 99° (E) 13:16:19 437.305
CUSAT 1 01 Sep 13:09:39 13:14:24 17° 278° (W) 13:18:50 437.405
50 SAT 01 Sep 13:16:12 13:18:06 13° 296° (WNW) 13:19:50 437.505
ITAMSAT 1 01 Sep 13:20:02 13:23:56 23° 64° (ENE) 13:27:59 435.822/435.867
DX 1 01 Sep 13:28:30 13:29:46 11° 300° (WNW) 13:30:48 434.975-435.025
ESTCUBE 1 01 Sep 13:40:36 13:43:25 16° 296° (WNW) 13:46:05 437.505/2401.250
ITUPSAT 1 01 Sep 13:41:47 13:44:48 17° 90° (E) 13:47:58 437.325
SPROUT 01 Sep 13:42:16 13:46:27 46° 288° (WNW) 13:50:35 437.525
DANDE 01 Sep 13:42:19 13:46:05 14° 278° (W) 13:49:26 436.750
CUBEBUG 1 01 Sep 13:50:33 13:53:06 15° 297° (WNW) 13:55:30 437.445
ISS 01 Sep 13:57:37 14:00:38 34° 21° (NNE) 14:03:39 145.825
Oscar 19 01 Sep 13:57:55 14:02:54 47° 261° (W) 14:07:55 437.125/150
JAS-2 01 Sep 14:02:46 14:09:52 42° 66° (ENE) 14:17:08 435.910
BEESAT 01 Sep 14:13:39 14:18:00 35° 97° (E) 14:22:23 436.000
GONETS M04 01 Sep 14:14:31 14:23:22 86° 81° (E) 14:32:14
AO-7 01 Sep 14:20:10 14:27:05 31° 56° (NE) 14:34:10 29.400- 29.500
SWISSCUBE 01 Sep 14:39:27 14:44:13 71° 103° (ESE) 14:48:58 437.505
Cosmos 2499 01 Sep 14:40:05 14:48:00 38° 68° (ENE) 14:55:34 435.465 / 435.565
Gurwin Techsat 1B 01 Sep 14:43:46 14:48:59 57° 260° (W) 14:54:15 435.225
TISAT 1 01 Sep 14:44:39 14:47:44 19° 294° (WNW) 14:50:42 437.305
BEESAT 3 01 Sep 14:49:10 14:53:02 46° 119° (ESE) 14:56:58 437.485
ITAMSAT 1 01 Sep 14:58:08 15:03:09 50° 261° (W) 15:08:11 435.822/435.867
BEESAT 2 01 Sep 15:02:11 15:06:06 47° 119° (ESE) 15:10:06 435.950
KKS-1 01 Sep 15:14:30 15:18:12 25° 94° (E) 15:21:57 437.445
ITUPSAT 1 01 Sep 15:18:26 15:23:05 54° 288° (WNW) 15:27:43 437.325
HORYU 2 01 Sep 15:24:58 15:29:11 41° 70° (ENE) 15:33:26 437.375
ISS 01 Sep 15:34:00 15:37:06 40° 219° (SW) 15:40:09 145.825
RS-15 01 Sep 15:37:23 15:47:24 46° 111° (ESE) 15:57:55 29.354- 29.394
AIST 2 01 Sep 15:43:34 15:47:07 27° 115° (ESE) 15:50:45 435.215
JAS-2 01 Sep 15:47:24 15:54:47 47° 264° (W) 16:02:18 435.910
BEESAT 01 Sep 15:51:44 15:55:43 27° 294° (WNW) 15:59:38 436.000
AO-7 01 Sep 16:11:04 16:19:23 68° 256° (WSW) 16:27:42 29.400- 29.500
GONETS M04 01 Sep 16:13:06 16:19:14 20° 281° (W) 16:24:56
SWISSCUBE 01 Sep 16:18:51 16:21:34 15° 299° (WNW) 16:24:05 437.505
BEESAT 3 01 Sep 16:27:57 16:31:11 22° 318° (NW) 16:34:22 437.485
STARS 01 Sep 16:29:57 16:34:26 88° 284° (WNW) 16:38:52 437.465
Cosmos 2499 01 Sep 16:33:10 16:41:28 50° 271° (W) 16:49:08 435.465 / 435.565
BEESAT 2 01 Sep 16:41:09 16:44:23 21° 318° (NW) 16:47:35 435.950
Cubesat XI-IV 01 Sep 16:45:04 16:47:55 15° 59° (ENE) 16:50:59 437.490
KKS-1 01 Sep 16:50:49 16:54:53 33° 291° (WNW) 16:58:53 437.445
HORYU 2 01 Sep 17:02:36 17:06:00 20° 268° (W) 17:09:19 437.375
MOZHAYETS 4 01 Sep 17:08:03 17:12:35 59° 101° (E) 17:17:03
AIST 2 01 Sep 17:21:40 17:25:35 35° 312° (NW) 17:29:30 435.215
CUTE-I 01 Sep 17:27:36 17:32:18 34° 67° (ENE) 17:37:04 437.470
RS-15 01 Sep 17:48:47 17:59:37 58° 315° (NW) 18:10:54 29.354- 29.394
STARS 01 Sep 18:09:24 18:10:13 10° 300° (WNW) 18:10:48 437.465
AO-7 01 Sep 18:10:28 18:13:59 12° 277° (W) 18:16:50 29.400- 29.500
O/OREOS (USA 219) 01 Sep 18:15:31 18:18:57 22° 103° (ESE) 18:22:32 437.305
Cubesat XI-IV 01 Sep 18:22:04 18:27:25 82° 256° (WSW) 18:32:47 437.490
GOMX 1 01 Sep 18:23:19 18:24:13 11° 58° (ENE) 18:25:23 467.674
Cosmos 2491 01 Sep 18:29:25 18:35:12 20° 58° (ENE) 18:41:22 435.465 / 435.565
HO-68 01 Sep 18:35:40 18:39:59 18° 53° (NE) 18:44:35 435.675
MOZHAYETS 4 01 Sep 18:46:34 18:49:22 16° 297° (WNW) 18:52:01
CUBESAT XI-V 01 Sep 19:03:58 19:08:38 86° 99° (E) 19:13:19 437.345
CUTE-I 01 Sep 19:07:35 19:12:23 33° 264° (W) 19:17:08 437.470
PRISM 01 Sep 19:09:39 19:12:01 15° 91° (E) 19:14:33 437.425
CANX-2 01 Sep 19:12:39 19:14:45 14° 64° (ENE) 19:17:00 2200.000
STRAND 1 01 Sep 19:14:02 19:18:24 29° 94° (E) 19:22:50 437.568
AIST 1 01 Sep 19:27:13 19:31:34 80° 264° (W) 19:35:55
SEEDS 01 Sep 19:32:07 19:34:35 16° 65° (ENE) 19:37:12 437.485
BRITE-PL 01 Sep 19:32:42 19:37:05 80° 77° (ENE) 19:41:52 437.365/2234.400
COMPASS 1 01 Sep 19:51:57 19:54:56 20° 67° (ENE) 19:58:01 437.405
O/OREOS (USA 219) 01 Sep 19:53:53 19:58:10 39° 300° (WNW) 20:02:29 437.305
GOMX 1 01 Sep 19:56:57 20:01:29 83° 76° (ENE) 20:06:26 467.674
AAUSAT CUBESAT 2 01 Sep 20:01:14 20:04:19 21° 67° (ENE) 20:07:29 437.432
RS-15 01 Sep 20:05:57 20:15:13 28° 346° (NNW) 20:24:44 29.354- 29.394
DOVE 4 01 Sep 20:06:05 20:10:40 63° 73° (ENE) 20:15:35 437.250
Cubesat XI-IV 01 Sep 20:07:39 20:08:29 10° 275° (W) 20:08:54 437.490
HO-68 01 Sep 20:19:36 20:26:45 81° 72° (ENE) 20:33:59 435.675
Cosmos 2491 01 Sep 20:24:50 20:33:38 86° 81° (E) 20:42:27 435.465 / 435.565
ZACube-1 01 Sep 20:27:51 20:30:08 14° 62° (ENE) 20:32:36 437.345
CUBEBUG 2 01 Sep 20:30:10 20:33:52 24° 67° (ENE) 20:37:44 437.445
CUTE 1.7 + AOD 2 01 Sep 20:31:43 20:36:01 82° 75° (ENE) 20:40:18 437.475
FUNcube-1 01 Sep 20:32:32 20:35:03 15° 63° (ENE) 20:37:45 145.935
YUBILEINY 01 Sep 20:33:25 20:41:26 43° 88° (E) 20:49:38 435.215
UWE-3 01 Sep 20:35:29 20:38:55 22° 66° (ENE) 20:42:32 435.000/436.395/437.385
CUBESAT XI-V 01 Sep 20:43:42 20:45:28 12° 299° (WNW) 20:47:01 437.345
PRISM 01 Sep 20:43:47 20:47:44 46° 288° (WNW) 20:51:41 437.425
CINEMA 3 01 Sep 20:44:48 20:49:29 69° 74° (ENE) 20:54:25 145.822/145.860
CANX-2 01 Sep 20:45:57 20:50:12 62° 260° (W) 20:54:28 2200.000
STRAND 1 01 Sep 20:53:01 20:57:42 37° 292° (WNW) 21:02:19 437.568
HUMSAT D 01 Sep 21:05:27 21:07:19 13° 63° (ENE) 21:09:22 437.325/437.525
SEEDS 01 Sep 21:05:50 21:10:00 52° 261° (W) 21:14:10 437.485
BRITE-PL 01 Sep 21:15:58 21:16:32 10° 277° (W) 21:16:46 437.365/2234.400
Oscar 11 01 Sep 21:16:27 21:20:44 60° 74° (ENE) 21:25:03 145.826/435.025
UKube-1 01 Sep 21:24:41 21:25:55 11° 61° (ENE) 21:27:21 .
COMPASS 1 01 Sep 21:26:23 21:30:21 39° 263° (W) 21:34:19 437.405
AAUSAT CUBESAT 2 01 Sep 21:35:48 21:39:42 36° 263° (W) 21:43:35 437.432
AISAT 01 Sep 21:39:15 21:40:51 12° 61° (ENE) 21:42:40 437.250
GOMX 1 01 Sep 21:39:29 21:40:32 10° 277° (W) 21:41:16 467.674
DOVE 4 01 Sep 21:46:17 21:49:02 15° 274° (W) 21:51:39 437.250
DELFI C3 01 Sep 21:52:31 21:56:34 83° 256° (WSW) 22:00:39 145.870
ZACube-1 01 Sep 22:01:24 22:05:57 71° 260° (W) 22:10:34 437.345
VELOX 1 01 Sep 22:05:20 22:08:33 21° 66° (ENE) 22:11:55 145.980
CUBEBUG 2 01 Sep 22:05:59 22:10:21 39° 264° (W) 22:14:48 437.445
FUNcube-1 01 Sep 22:06:21 22:10:52 65° 259° (W) 22:15:28 145.935
HO-68 01 Sep 22:10:18 22:15:24 20° 272° (W) 22:20:11 435.675
UWE-3 01 Sep 22:10:46 22:15:10 44° 263° (W) 22:19:39 435.000/436.395/437.385
TIGRISAT 01 Sep 22:19:06 22:21:35 15° 88° (E) 22:24:13 435.000
Cosmos 2504 01 Sep 22:20:42 22:27:16 29° 82° (E) 22:34:19 435.465 / 435.565
RS-15 01 Sep 22:22:43 22:32:27 30° 20° (NNE) 22:42:42 29.354- 29.394
Cosmos 2491 01 Sep 22:23:27 22:29:31 20° 281° (W) 22:35:11 435.465 / 435.565
50 SAT 01 Sep 22:24:31 22:28:07 34° 71° (ENE) 22:31:44 437.505
CINEMA 3 01 Sep 22:24:47 22:27:19 14° 274° (W) 22:29:38 145.822/145.860
YUBILEINY 01 Sep 22:29:57 22:38:18 45° 288° (WNW) 22:46:39 435.215
ANTELSAT 01 Sep 22:35:48 22:39:24 23° 92° (E) 22:42:59 437.575/2403.000
HUMSAT D 01 Sep 22:38:13 22:42:32 69° 259° (W) 22:46:52 437.325/437.525
M-CUBED/EXP-1 PRIME 01 Sep 22:45:13 22:47:19 14° 94° (E) 22:49:28 437.505
DX 1 01 Sep 22:46:10 22:50:31 86° 76° (ENE) 22:54:53 434.975-435.025
POLYITAN 1 01 Sep 22:49:31 22:50:29 11° 87° (E) 22:51:43 437.675
DUCHIFAT 1 01 Sep 22:51:26 22:52:08 10° 87° (E) 22:53:06 145.980
POPSAT HIP 1 01 Sep 22:51:30 22:52:40 11° 87° (E) 22:54:06 437.405
CUSAT 1 01 Sep 22:54:43 22:56:10 12° 78° (ENE) 22:58:01 437.405
Oscar 11 01 Sep 22:55:12 22:57:23 13° 272° (W) 22:59:21 145.826/435.025
UKube-1 01 Sep 22:57:09 23:01:28 81° 256° (WSW) 23:05:49 .
SPROUT 01 Sep 23:03:03 23:05:39 16° 64° (ENE) 23:08:23 437.525
ESTCUBE 1 01 Sep 23:03:05 23:07:30 60° 73° (ENE) 23:11:56 437.505/2401.250
BEESAT 3 01 Sep 23:06:24 23:10:15 41° 50° (NE) 23:14:03 437.485
QB50P2 01 Sep 23:07:20 23:10:13 18° 91° (E) 23:13:13 145.880/145.840
NANOSAT C BR1 01 Sep 23:07:35 23:10:21 17° 91° (E) 23:13:14 145.865
CUBEBUG 1 01 Sep 23:09:54 23:14:07 57° 73° (ENE) 23:18:24 437.445
AISAT 01 Sep 23:12:27 23:16:51 78° 256° (WSW) 23:21:19 437.250
BEESAT 2 01 Sep 23:20:01 23:23:55 42° 50° (NE) 23:27:46 435.950
QB50P1 01 Sep 23:21:10 23:24:39 24° 94° (E) 23:28:11 145.935-145.965
UNISAT 6 01 Sep 23:26:03 23:30:40 77° 102° (ESE) 23:35:07 437.425
DANDE 01 Sep 23:29:41 23:31:39 14° 81° (E) 23:34:03 436.750
VELOX 1 01 Sep 23:40:43 23:44:52 40° 262° (W) 23:49:03 145.980
TIGRISAT 01 Sep 23:54:17 23:58:48 57° 287° (WNW) 00:03:10 435.000
50 SAT 01 Sep 23:59:50 00:02:45 19° 268° (W) 00:05:34 437.505
TISAT 1 02 Sep 00:01:18 00:05:09 36° 70° (ENE) 00:09:04 437.305
AIST 2 02 Sep 00:03:43 00:07:22 28° 45° (NE) 00:10:58 435.215
Cosmos 2504 02 Sep 00:10:44 00:18:52 65° 282° (WNW) 00:27:26 435.465 / 435.565
ANTELSAT 02 Sep 00:12:04 00:16:18 36° 290° (WNW) 00:20:23 437.575/2403.000
AUBIESAT-1 02 Sep 00:12:08 00:16:03 62° 291° (WNW) 00:19:38 437.475
SWISSCUBE 02 Sep 00:12:55 00:14:33 12° 60° (ENE) 00:16:25 437.505
M-CUBED/EXP-1 PRIME 02 Sep 00:18:39 00:22:30 44° 294° (WNW) 00:26:00 437.505
POLYITAN 1 02 Sep 00:22:38 00:26:58 71° 286° (WNW) 00:31:14 437.675
DUCHIFAT 1 02 Sep 00:24:14 00:28:32 73° 285° (WNW) 00:32:47 145.980
POPSAT HIP 1 02 Sep 00:24:48 00:29:06 69° 285° (WNW) 00:33:21 437.405
BUGSAT 1 02 Sep 00:26:54 00:31:11 76° 102° (ESE) 00:35:27 437.445
CUSAT 1 02 Sep 00:33:32 00:37:33 66° 285° (WNW) 00:43:01 437.405
RS-15 02 Sep 00:35:54 00:47:39 68° 49° (NE) 00:59:52 29.354- 29.394
SPROUT 02 Sep 00:37:09 00:41:21 52° 260° (W) 00:45:35 437.525
QB50P2 02 Sep 00:42:14 00:46:20 43° 289° (WNW) 00:50:24 145.880/145.840
NANOSAT C BR1 02 Sep 00:42:19 00:46:26 45° 288° (WNW) 00:50:31 145.865
ESTCUBE 1 02 Sep 00:42:26 00:44:50 14° 271° (W) 00:47:02 437.505/2401.250
BEESAT 3 02 Sep 00:44:55 00:47:55 20° 247° (WSW) 00:50:48 437.485
CUBEBUG 1 02 Sep 00:48:39 00:50:55 13° 271° (W) 00:53:00 437.445
ITUPSAT 1 02 Sep 00:49:37 00:53:20 24° 66° (ENE) 00:57:10 437.325
QB50P1 02 Sep 00:56:43 01:00:33 32° 291° (WNW) 01:04:20 145.935-145.965
BEESAT 2 02 Sep 00:58:43 01:01:41 19° 247° (WSW) 01:04:32 435.950
SO-50 02 Sep 01:02:24 01:07:08 62° 121° (ESE) 01:12:01 436.795
UNISAT 6 02 Sep 01:04:45 01:06:50 13° 299° (WNW) 01:08:43 437.425
PCSat 02 Sep 01:07:50 01:12:24 30° 110° (ESE) 01:17:07 145.827
DANDE 02 Sep 01:10:31 01:14:01 41° 289° (WNW) 01:18:39 436.750
